Wind_Speed
33 33 41 44 54 56 59 63 56 57 52 49 45 42 37 27 24 24 26 27 26 25 25 28 26 27 29 28 21 15 11 8 9 7 7 14 18 15 11 5 4 5 3 7 10 15 18 23 21
29 30 35 38 48 52 56 59 58 54 55 48 46 42 38 36 31 29 28 23 21 23 22 25 25 24 24 28 21 16 14 12 12 11 14 17 5 7 2 4 6 4 7 11 10 10 17 17 18
27 29 31 32 43 48 53 58 59 52 51 51 47 45 38 39 33 29 26 22 20 20 20 18 18 18 18 19 22 22 18 16 16 16 15 7 5 3 4 7 8 9 12 8 8 15 16 19 20
18 32 26 27 34 41 49 54 58 55 50 47 50 49 43 36 35 31 27 25 21 17 16 15 16 15 14 15 14 16 16 16 17 7 6 5 6 8 1 3 4 12 5 7 10 13 17 22 19
16 28 23 24 28 38 43 44 51 54 51 48 47 45 46 41 38 33 30 25 22 20 17 14 11 11 11 11 11 12 13 12 11 8 6 6 6 5 6 5 7 3 13 16 19 24 22 20 16
19 17 20 22 28 38 39 40 46 47 52 50 47 46 43 40 41 37 31 28 22 18 18 16 15 11 8 9 11 11 9 10 9 9 12 8 3 5 1 9 13 14 16 18 22 25 23 21 17
13 12 15 12 19 32 35 37 43 43 47 51 49 48 45 42 42 40 35 29 25 23 23 20 15 12 10 7 9 9 10 10 11 9 8 8 7 8 9 8 9 9 14 17 19 18 17 16 15
11 10 13 6 21 27 32 33 38 38 42 48 51 49 49 42 42 42 40 38 27 23 21 21 19 17 10 5 5 10 11 9 9 9 8 9 8 5 6 10 12 13 18 18 16 16 15 13 13
6 8 11 6 19 20 27 31 33 35 39 42 45 50 48 47 40 41 39 38 39 33 23 20 19 18 14 8 6 8 9 9 9 9 9 6 8 7 10 9 9 10 12 16 20 19 16 13 10
4 8 7 6 18 20 21 25 28 32 34 36 39 42 47 46 46 42 39 38 38 37 35 24 19 20 22 15 5 9 10 10 9 8 7 4 2 4 4 4 7 14 19 25 27 30 18 17 18
3 6 5 6 10 14 20 20 23 26 29 32 34 39 42 41 47 46 41 40 37 36 36 34 26 23 25 26 15 8 8 9 8 6 7 6 4 5 4 7 16 21 23 21 24 31 29 29 30
7 5 6 9 10 12 14 19 22 24 22 28 29 33 38 39 41 44 44 39 36 36 33 32 32 28 26 25 23 16 10 9 8 5 4 5 6 6 12 18 21 22 22 20 22 30 39 36 33
10 7 8 6 2 4 7 18 18 21 21 24 27 29 34 34 36 40 42 42 36 33 35 32 30 30 28 25 23 23 18 13 11 10 8 9 14 19 18 22 22 22 22 25 27 29 32 35 39
15 14 14 1 2 3 6 18 11 15 18 20 22 24 28 32 31 35 40 40 40 33 31 33 29 27 28 27 22 21 20 18 15 15 14 15 18 19 22 22 22 22 25 28 29 31 33 35 33
23 21 18 8 9 8 5 7 9 14 13 15 16 19 21 26 29 28 36 39 36 34 30 29 29 26 25 26 25 21 19 17 16 16 16 18 20 21 21 23 22 24 27 30 31 31 32 34 33
31 25 28 19 11 10 6 4 3 9 12 10 12 13 16 23 23 25 29 36 36 31 30 25 26 25 26 24 23 22 19 18 16 16 18 20 22 21 22 24 24 25 26 28 28 28 29 29 30
33 29 35 27 23 21 14 8 14 12 9 6 7 10 16 17 20 24 26 30 36 32 29 26 22 23 25 23 21 21 22 17 17 16 17 20 21 21 21 22 22 23 24 26 25 25 26 27 27
42 38 38 37 31 29 27 25 10 14 13 4 6 10 12 13 17 21 26 33 34 30 26 25 22 19 21 22 21 19 19 21 17 16 15 16 18 20 19 19 19 21 22 23 22 22 23 24 25
47 43 41 44 41 35 33 29 21 18 10 10 10 13 12 14 14 17 21 27 32 29 27 22 22 18 17 18 19 18 18 19 19 17 16 13 14 16 18 17 17 18 18 19 19 20 21 22 24
53 50 49 49 48 46 38 34 32 31 30 21 23 24 22 25 23 19 21 24 26 28 25 23 19 18 14 13 14 17 17 16 16 15 14 12 12 13 14 15 14 16 16 17 17 18 19 21 22
61 57 55 57 54 52 50 43 39 36 35 35 33 32 34 29 30 27 25 22 25 25 25 23 17 16 14 10 11 11 14 14 14 13 12 10 11 12 11 11 11 13 14 14 15 17 17 19 19
66 64 62 61 58 58 57 55 50 45 44 43 42 39 38 37 37 33 29 26 23 25 23 21 17 14 14 10 7 8 8 10 10 10 10 9 9 9 10 9 9 10 11 12 13 15 15 15 14
73 71 69 67 64 61 63 61 58 55 55 49 47 46 42 40 39 36 33 30 26 24 24 22 16 13 13 12 8 6 6 3 5 7 6 7 9 9 10 10 10 10 11 11 11 12 12 12 11
79 78 76 74 71 66 69 65 67 66 63 59 55 52 49 47 43 42 41 39 31 27 27 23 18 13 14 12 12 8 5 5 3 1 3 4 4 5 7 7 8 8 8 8 8 7 8 10 9
82 83 81 81 77 75 74 70 74 72 72 69 65 60 57 54 53 50 47 47 39 31 28 27 21 17 15 16 14 13 9 9 9 8 5 3 2 2 2 2 2 2 3 4 4 4 6 5 6
83 83 83 85 83 81 83 76 76 81 79 74 71 68 64 61 58 56 53 51 46 39 34 27 24 23 19 18 19 17 15 13 14 14 12 11 9 6 6 6 6 4 3 2 1 2 5 2 2
78 79 83 85 85 85 83 82 85 85 83 79 79 77 72 67 63 60 58 56 54 48 40 34 28 28 26 22 23 23 20 19 16 20 20 18 16 14 9 10 10 9 10 9 7 5 5 6 2
81 80 80 80 81 83 83 84 86 86 86 86 84 81 78 74 72 69 66 61 60 57 49 41 35 33 32 27 27 26 26 24 24 21 22 24 24 22 20 18 15 14 13 12 11 8 5 10 7
81 82 83 83 81 79 78 77 81 82 84 88 86 83 81 79 76 75 72 68 63 57 51 48 45 40 36 34 31 30 31 29 29 29 24 25 27 28 26 23 20 18 17 17 16 14 11 10 7
83 83 84 85 83 81 78 73 77 77 77 81 86 83 83 81 78 77 76 71 67 62 57 54 53 49 45 41 38 36 34 33 32 33 31 26 25 27 26 26 22 20 20 20 19 20 19 16 14
Wind_Direction
49 52 54 44 48 48 45 42 47 49 48 53 57 67 81 100 105 102 121 119 123 137 152 162 170 178 185 187 192 182 197 206 196 221 295 319 311 296 319 20 39 58 33 343 339 353 351 336 331
54 50 46 44 48 47 47 45 44 50 51 51 59 62 76 84 97 107 119 126 123 130 140 156 172 174 178 198 200 201 209 219 222 227 274 292 247 290 278 99 91 43 337 352 355 344 347 338 340
57 46 39 39 49 46 46 47 45 47 53 55 55 62 66 76 85 97 110 117 122 127 133 147 164 178 188 193 211 222 226 226 239 257 275 238 164 179 160 129 53 21 14 344 325 313 317 335 338
41 40 31 42 45 54 51 47 46 45 52 57 58 57 61 72 81 79 91 104 113 124 126 128 140 151 160 165 180 200 218 225 244 213 208 202 194 149 147 198 352 47 13 322 325 307 323 346 342
19 33 28 50 50 56 54 43 40 46 49 53 60 61 56 59 69 78 84 95 104 108 108 108 111 124 132 139 160 184 202 212 208 195 188 167 176 261 59 72 83 61 359 345 328 328 339 344 335
45 19 17 17 58 49 48 43 40 42 49 52 55 60 61 58 63 65 66 76 84 94 96 96 96 98 112 136 146 155 157 168 177 174 175 181 225 106 107 256 273 290 320 315 330 329 329 331 335
40 21 25 45 31 32 45 39 41 45 48 51 53 56 59 61 62 65 65 65 68 69 74 74 84 82 83 117 137 146 159 160 157 165 178 184 198 221 246 294 359 310 329 329 332 335 339 338 336
45 47 41 65 26 34 42 33 41 49 45 53 51 52 55 57 57 59 58 58 62 66 68 71 76 78 86 91 116 145 152 161 161 163 175 198 207 245 336 328 331 331 333 346 351 356 350 346 347
105 36 46 46 9 35 15 30 47 46 46 47 52 50 52 53 52 57 57 55 51 54 62 69 71 73 71 78 158 172 171 172 182 187 197 198 233 266 286 336 326 344 12 31 35 23 11 12 14
55 52 55 36 358 351 16 17 36 46 43 45 36 49 50 50 50 49 54 55 54 51 51 56 58 57 48 44 121 175 188 183 178 178 176 189 251 297 334 331 23 53 63 65 49 38 43 54 58
264 347 343 44 12 24 28 27 37 40 46 44 41 39 47 48 47 47 48 50 52 52 51 50 49 45 47 41 68 116 155 159 166 153 138 117 78 74 67 38 77 81 79 70 53 46 57 62 68
261 324 61 86 60 36 17 42 32 36 52 40 37 31 40 40 48 44 43 48 48 48 49 48 49 48 48 49 57 78 107 155 159 154 129 107 102 67 90 87 89 83 84 79 70 65 63 65 68
212 225 131 26 70 343 304 59 19 19 25 35 32 29 35 42 41 45 42 42 43 41 43 45 47 50 50 53 63 73 84 98 108 109 108 108 101 97 94 96 89 88 85 82 77 73 69 71 69
192 199 179 231 215 12 275 52 27 3 11 19 22 34 31 36 41 39 38 37 36 38 39 40 45 49 52 50 56 72 81 89 94 98 101 102 103 102 103 99 92 93 88 82 77 72 72 73 73
202 209 203 139 155 164 83 16 355 354 350 8 16 24 24 30 34 33 32 31 31 32 34 35 40 47 49 54 54 58 75 88 93 100 101 106 105 104 102 99 99 97 92 86 82 77 73 70 68
242 224 214 240 221 200 196 308 11 303 336 0 3 15 16 22 30 27 30 25 25 25 29 32 35 43 49 54 58 55 60 75 88 98 105 111 109 108 107 108 107 103 98 92 85 81 77 73 70
241 242 223 239 249 226 214 231 237 274 315 330 338 7 353 3 17 17 7 11 16 21 18 24 29 35 44 51 56 62 60 67 79 95 104 111 112 116 114 115 108 105 101 97 91 84 78 72 66
237 238 228 235 243 248 251 257 261 278 274 249 307 330 332 329 3 1 359 355 2 13 17 11 22 26 38 47 54 59 71 70 72 80 89 109 111 115 115 113 107 107 104 99 93 89 81 73 66
240 238 233 234 241 246 249 256 233 239 218 238 269 294 305 306 328 343 348 345 347 360 10 8 7 24 26 38 48 55 64 72 76 78 82 89 99 107 112 115 110 105 99 96 89 82 77 70 63
238 240 241 239 239 246 244 247 252 251 255 253 266 276 283 295 296 308 326 331 336 345 356 3 359 5 22 25 34 49 56 67 75 82 83 89 91 100 112 119 118 108 101 95 90 80 73 66 68
241 239 240 246 244 246 250 246 248 250 256 259 260 268 277 279 287 293 302 313 323 335 342 352 348 348 4 14 16 30 57 65 69 74 86 93 94 96 97 107 109 103 100 90 84 80 74 72 69
243 243 241 241 243 245 249 253 253 252 254 254 260 263 267 273 279 285 292 293 302 315 325 332 341 336 340 357 350 359 35 66 72 75 77 93 91 91 92 98 92 87 89 86 78 82 77 70 67
246 245 247 245 243 243 248 254 254 255 255 255 258 261 264 270 275 279 281 284 289 301 310 313 324 319 323 330 333 319 336 1 47 72 78 78 89 93 96 87 84 80 77 76 66 66 65 59 52
246 246 247 247 247 246 245 248 255 257 257 256 256 257 259 262 265 269 274 277 281 289 299 298 299 304 302 312 314 306 280 288 295 334 101 100 73 87 100 103 100 89 86 77 67 53 47 36 30
246 247 246 247 249 248 249 247 254 253 254 255 258 259 261 262 264 266 269 274 275 280 286 285 281 281 285 292 298 295 278 255 269 266 254 260 229 294 318 116 123 88 72 77 56 43 29 18 5
247 246 248 246 246 246 248 250 251 253 253 255 257 259 260 262 264 266 267 268 270 275 278 271 269 270 273 275 281 285 282 268 253 252 254 257 257 251 263 251 231 219 222 206 200 266 318 341 355
250 249 248 248 246 246 247 247 248 250 252 252 254 256 258 258 258 260 262 265 270 271 268 264 257 262 266 271 273 275 276 275 263 246 246 253 259 250 250 272 252 248 247 243 230 225 259 215 219
253 251 250 249 248 247 246 246 247 251 252 251 251 252 253 255 256 257 257 259 262 265 267 264 255 255 264 267 269 271 272 272 273 265 257 253 251 258 258 272 255 243 264 261 255 252 233 213 262
253 252 251 250 250 249 248 247 247 248 251 252 251 251 251 251 252 254 255 256 258 260 261 259 259 256 255 259 262 267 269 268 269 271 264 255 252 253 256 259 265 263 257 253 259 253 238 240 260
253 253 255 254 252 250 249 248 248 245 246 248 251 250 251 251 250 251 251 252 254 254 255 255 257 257 256 256 259 262 264 266 266 268 270 264 254 253 249 250 255 257 257 252 253 245 259 245 264
Height
11010 11008 11003 11000 10993 10986 10981 10974 10967 10960 10956 10950 10946 10946 10944 10945 10949 10951 10953 10956 10960 10962 10965 10968 10972 10975 10979 10983 10985 10987 10987 10988 10989 10988 10989 10989 10988 10988 10988 10988 10987 10986 10986 10985 10986 10985 10984 10982 10980
11012 11011 11007 11004 10999 10995 10990 10984 10977 10970 10965 10960 10956 10955 10954 10952 10954 10956 10959 10962 10964 10966 10968 10971 10974 10977 10980 10982 10984 10986 10988 10989 10989 10990 10990 10989 10989 10987 10988 10988 10987 10987 10986 10985 10985 10986 10984 10981 10979
11014 11014 11013 11009 11005 11002 10998 10992 10987 10981 10973 10970 10966 10963 10962 10960 10961 10962 10963 10966 10968 10969 10971 10973 10975 10978 10980 10983 10984 10987 10988 10989 10989 10989 10989 10987 10989 10989 10989 10989 10988 10987 10985 10986 10984 10983 10983 10981 10976
11020 11018 11017 11014 11010 11005 11003 11001 10995 10990 10983 10979 10974 10970 10970 10969 10966 10969 10969 10969 10972 10973 10974 10975 10976 10978 10980 10981 10983 10985 10987 10988 10987 10989 10987 10987 10988 10989 10988 10988 10988 10987 10986 10986 10984 10982 10981 10977 10974
11024 11022 11021 11018 11016 11011 11008 11007 11003 10999 10994 10987 10982 10979 10978 10976 10973 10973 10974 10975 10975 10975 10975 10977 10978 10978 10979 10980 10983 10984 10985 10987 10987 10988 10988 10987 10988 10990 10989 10989 10988 10989 10985 10984 10983 10980 10977 10975 10972
11027 11026 11025 11021 11020 11016 11013 11012 11010 11007 11002 10996 10991 10986 10983 10984 10981 10978 10978 10979 10979 10978 10976 10976 10977 10978 10979 10980 10982 10984 10986 10986 10988 10988 10989 10989 10990 10990 10992 10991 10990 10988 10985 10984 10981 10978 10974 10971 10967
11030 11029 11028 11026 11024 11022 11019 11016 11015 11013 11011 11005 10999 10994 10990 10991 10988 10984 10984 10983 10982 10980 10979 10978 10978 10979 10979 10980 10982 10985 10985 10986 10987 10988 10988 10990 10990 10991 10990 10991 10989 10987 10985 10982 10979 10975 10971 10968 10965
11031 11032 11031 11029 11027 11027 11023 11021 11019 11018 11016 11011 11007 11002 10998 10996 10994 10988 10987 10987 10984 10983 10981 10980 10980 10981 10981 10981 10982 10984 10985 10986 10986 10987 10989 10989 10991 10990 10989 10989 10988 10985 10983 10980 10977 10973 10969 10966 10963
11031 11033 11033 11031 11031 11029 11028 11025 11023 11022 11020 11019 11014 11010 11006 11003 11000 10995 10992 10990 10988 10985 10984 10984 10983 10982 10981 10980 10981 10983 10983 10985 10986 10988 10989 10990 10991 10991 10989 10989 10987 10985 10982 10980 10977 10973 10968 10964 10962
11033 11033 11034 11034 11033 11031 11032 11029 11028 11026 11025 11024 11021 11015 11012 11009 11006 11003 10999 10996 10993 10991 10988 10987 10987 10985 10982 10979 10979 10981 10982 10984 10986 10987 10990 10991 10992 10991 10989 10988 10986 10984 10983 10982 10980 10974 10969 10965 10962
11032 11035 11035 11035 11034 11033 11032 11031 11030 11030 11027 11028 11025 11021 11018 11016 11012 11009 11005 11001 10998 10995 10993 10990 10989 10987 10984 10980 10978 10979 10981 10983 10986 10988 10990 10991 10992 10991 10990 10988 10986 10985 10986 10986 10984 10979 10973 10969 10967
11033 11035 11036 11036 11037 11037 11033 11033 11032 11032 11030 11029 11029 11025 11022 11021 11018 11015 11011 11006 11004 11001 10998 10995 10993 10990 10988 10986 10983 10982 10984 10986 10988 10989 10991 10991 10991 10991 10990 10989 10988 10989 10989 10988 10987 10984 10980 10976 10974
11032 11036 11036 11036 11037 11038 11037 11033 11034 11035 11033 11030 11030 11029 11026 11024 11023 11019 11016 11012 11009 11006 11003 11001 10998 10995 10993 10992 10990 10987 10987 10989 10991 10991 10992 10991 10991 10992 10992 10992 10992 10992 10992 10991 10990 10989 10986 10984 10983
11031 11034 11035 11036 11037 11038 11037 11034 11035 11036 11035 11033 11032 11031 11029 11027 11025 11022 11020 11017 11015 11012 11009 11007 11003 11000 10998 10996 10995 10993 10993 10993 10993 10993 10993 10993 10993 10994 10995 10995 10996 10996 10996 10995 10995 10994 10992 10991 10989
11028 11031 11032 11034 11036 11036 11036 11036 11036 11036 11036 11035 11034 11032 11031 11029 11026 11025 11023 11021 11020 11018 11015 11011 11009 11006 11003 11000 10999 10998 10997 10996 10996 10996 10996 10996 10996 10997 10999 10999 11000 11000 10999 10999 10999 10999 10998 10997 10996
11022 11026 11029 11031 11033 11034 11035 11035 11034 11035 11034 11034 11034 11032 11032 11031 11028 11027 11027 11025 11024 11021 11020 11016 11013 11011 11007 11005 11003 11002 11001 11000 10999 10999 10999 10999 10999 11000 11002 11002 11002 11003 11002 11002 11002 11003 11003 11001 11000
11017 11020 11024 11026 11027 11029 11032 11033 11032 11033 11033 11031 11033 11032 11031 11031 11029 11028 11027 11027 11026 11024 11023 11020 11017 11014 11011 11008 11007 11006 11004 11004 11003 11003 11003 11003 11002 11003 11005 11005 11005 11006 11006 11005 11006 11006 11006 11005 11004
11011 11015 11019 11020 11022 11024 11027 11028 11030 11030 11031 11030 11031 11030 11030 11031 11030 11029 11028 11027 11027 11027 11026 11023 11021 11018 11015 11012 11011 11010 11008 11007 11006 11006 11006 11006 11006 11006 11007 11008 11008 11009 11009 11009 11009 11009 11009 11008 11007
11003 11008 11013 11013 11015 11018 11022 11023 11028 11026 11027 11028 11027 11027 11027 11029 11028 11029 11030 11029 11029 11029 11027 11025 11023 11022 11019 11016 11014 11013 11011 11009 11009 11009 11009 11009 11009 11009 11009 11010 11012 11012 11013 11013 11013 11013 11012 11011 11010
10995 10999 11003 11006 11009 11011 11016 11016 11019 11022 11023 11025 11025 11024 11025 11025 11027 11027 11028 11030 11030 11029 11028 11026 11025 11023 11022 11020 11017 11015 11014 11013 11012 11011 11012 11012 11012 11012 11012 11012 11013 11014 11015 11015 11015 11015 11015 11015 11014
10983 10990 10994 10994 11000 11004 11005 11010 11012 11014 11016 11017 11019 11021 11020 11022 11023 11025 11027 11028 11028 11028 11028 11027 11025 11024 11023 11022 11020 11018 11016 11016 11016 11015 11014 11015 11015 11014 11015 11015 11016 11016 11016 11017 11017 11017 11017 11018 11017
10971 10977 10982 10986 10991 10996 10997 10999 11001 11006 11006 11009 11011 11014 11015 11017 11019 11021 11024 11026 11028 11028 11027 11027 11026 11025 11023 11022 11022 11021 11020 11018 11018 11017 11017 11017 11017 11017 11017 11017 11018 11018 11017 11017 11018 11017 11018 11019 11018
10957 10964 10968 10974 10979 10986 10986 10988 10991 10994 10993 11000 11002 11004 11008 11012 11014 11015 11017 11020 11024 11025 11025 11025 11024 11024 11023 11022 11022 11021 11020 11020 11018 11018 11018 11018 11018 11018 11018 11018 11019 11019 11018 11019 11018 11018 11018 11019 11019
10943 10948 10953 10958 10965 10976 10974 10980 10976 10977 10980 10985 10991 10995 10998 11002 11006 11008 11009 11013 11017 11019 11021 11022 11021 11021 11021 11021 11021 11021 11020 11019 11019 11019 11018 11019 11019 11019 11018 11018 11019 11018 11018 11018 11018 11019 11018 11018 11018
10925 10929 10937 10943 10949 10953 10959 10969 10958 10963 10964 10971 10980 10987 10990 10993 10996 11000 11002 11005 11009 11013 11014 11016 11016 11016 11016 11017 11018 11019 11018 11017 11018 11018 11018 11018 11018 11018 11018 11018 11018 11017 11018 11017 11018 11018 11018 11018 11017
10904 10910 10915 10923 10931 10934 10942 10953 10945 10942 10949 10960 10968 10973 10978 10982 10986 10990 10993 10995 10999 11005 11008 11010 11011 11011 11011 11012 11014 11015 11015 11015 11015 11016 11017 11017 11017 11018 11018 11017 11017 11017 11016 11016 11017 11017 11017 11016 11016
10883 10890 10895 10900 10909 10916 10925 10930 10925 10921 10937 10947 10952 10957 10963 10970 10973 10976 10980 10985 10989 10994 10999 11000 11004 11004 11005 11007 11007 11009 11011 11011 11012 11012 11014 11014 11015 11015 11016 11016 11016 11015 11015 11016 11015 11015 11016 11015 11015
10860 10868 10874 10878 10886 10896 10906 10910 10909 10911 10915 10927 10934 10940 10947 10954 10957 10962 10967 10972 10977 10983 10989 10993 10995 10997 10999 10999 11000 11002 11004 11005 11006 11007 11008 11009 11010 11011 11012 11012 11014 11014 11014 11014 11013 11014 11014 11014 11014
10841 10844 10849 10857 10864 10873 10883 10890 10889 10896 10896 10902 10912 10921 10929 10937 10941 10945 10952 10958 10963 10971 10978 10981 10984 10988 10990 10991 10993 10994 10997 10998 10999 11000 11002 11003 11003 11004 11006 11007 11008 11009 11010 11011 11011 11011 11011 11012 11012
10822 10825 10827 10832 10843 10851 10860 10870 10869 10874 10879 10880 10887 10901 10908 10916 10924 10929 10935 10943 10949 10956 10962 10967 10971 10975 10978 10982 10984 10986 10988 10990 10992 10992 10995 10998 10998 10998 11000 11001 11003 11004 11006 11006 11007 11008 11009 11009 11009